User: anonymous   Login
Location: Estes Park
(40.3770°N, 105.5210°W)
Time: 04:35:00
(UTC-07:00)
Language:

Hubble Space Telescope - Orbit

View from above orbital plane
View from above orbital plane
View from above satellite
View from above satellite

Ground track
Ground track

The orbit data is extracted from the following two-line orbital elements,

1 20580U 90037B   18023.92771264 +.00000461 +00000-0 +17324-4 0  9998
2 20580 028.4707 348.6937 0002768 033.5213 004.0874 15.08967590323578
Epoch (UTC): 23 January 2018 22:15:54
Eccentricity: 0.0002768
inclination: 28.4707°
perigee height: 537 km
apogee height: 541 km
right ascension of ascending node: 348.6937°
argument of perigee: 33.5213°
revolutions per day: 15.08967590
mean anomaly at epoch: 4.0874°
orbit number at epoch: 32357

The dashed part of the orbit path shows where the satellite is in the earth's shadow,  

DLR